Wind_Speed
26 26 27 26 25 24 23 24 25 24 23 21 20 19 19 18 17 17 17 17 17 16 16 17 18 18 19 19 20 20 20 21 22 23 24 24 25 24 24 24 24 24 25 26 26 27 28 30 30 31 30 29 29 29 29 30 30 30 30 31 32 33 34 34 33 31 31 32 35
24 24 24 23 21 21 22 24 25 24 23 22 21 20 19 19 18 18 17 17 17 17 17 18 19 20 21 21 22 22 22 23 23 25 26 26 27 27 27 27 26 27 27 27 28 29 29 30 31 31 31 32 32 33 33 32 31 30 30 30 31 33 33 33 32 30 29 29 32
23 22 20 18 19 21 22 23 23 23 23 21 20 19 19 18 18 17 17 17 18 18 19 19 20 22 23 23 24 24 24 25 25 26 27 27 28 28 28 28 27 28 28 28 28 29 29 29 29 30 31 32 32 32 32 32 32 30 29 29 30 31 31 30 29 29 28 27 27
23 22 21 19 20 20 21 22 21 21 21 20 20 19 19 18 18 18 18 18 19 20 20 21 22 23 24 25 25 25 25 25 26 26 27 27 27 27 27 27 27 27 28 28 29 29 28 27 26 26 27 28 29 30 31 32 32 31 30 30 30 30 29 28 27 26 25 24 23
24 23 22 21 20 20 20 21 20 20 20 20 19 19 19 19 19 19 20 20 21 22 22 23 24 25 25 24 23 23 23 24 24 24 25 25 25 25 25 25 25 25 25 25 26 26 26 25 25 26 27 28 29 30 30 30 29 28 29 29 29 29 29 28 27 25 23 22 21
24 23 22 21 21 21 20 20 20 20 20 20 20 20 20 21 21 21 22 22 22 22 22 23 23 22 21 21 20 21 21 22 23 23 24 24 24 24 23 21 20 20 21 20 19 20 21 22 23 25 26 27 27 28 27 26 25 24 25 25 26 27 26 26 24 23 22 20 19
24 23 21 20 20 20 20 20 20 21 21 21 21 22 22 23 23 22 22 22 21 21 20 20 19 18 18 19 20 21 22 23 24 24 23 22 22 21 20 19 18 17 17 16 15 15 15 17 19 21 23 23 23 24 23 22 22 21 21 22 22 22 21 20 19 18 16 14 13
25 24 22 20 19 19 20 20 21 21 22 22 23 23 23 23 22 22 21 21 19 17 17 17 17 17 18 20 21 22 23 23 23 22 21 19 18 17 16 15 15 14 14 13 13 13 14 14 15 16 16 15 15 15 15 16 16 16 16 16 16 15 14 13 12 11 9 7 6
26 25 23 21 20 20 20 21 21 22 22 23 23 23 22 21 21 20 19 17 15 14 15 16 16 17 18 19 20 20 19 17 15 14 13 13 13 12 12 12 12 12 11 10 10 9 9 8 7 6 5 4 4 4 5 5 6 7 7 7 7 7 6 6 5 5 4 3 2
26 26 24 23 21 21 21 21 22 22 22 22 21 20 19 19 18 15 13 12 13 14 14 14 15 15 16 16 15 13 10 8 7 7 7 8 9 9 9 10 9 9 7 6 5 4 3 2 2 2 2 3 3 2 2 2 2 2 2 2 2 2 2 2 2 2 3 3 3
26 26 25 23 22 21 21 22 22 22 21 20 19 17 16 14 12 10 11 12 12 13 12 12 12 12 12 11 9 7 7 7 7 7 7 7 6 6 6 6 5 5 4 3 2 2 2 3 4 5 6 6 6 5 5 5 5 5 6 6 6 6 6 7 7 7 7 7 7
24 24 24 23 22 21 21 21 21 21 19 18 15 12 10 8 9 10 11 11 11 11 10 10 9 9 8 8 8 8 8 7 6 6 5 4 4 3 3 2 2 2 2 3 4 5 6 7 8 8 9 9 9 9 9 9 9 9 9 9 10 10 10 11 11 11 12 12 12
22 22 22 22 22 21 21 21 20 18 16 13 10 7 6 7 9 9 9 9 9 9 8 8 7 8 8 8 8 7 6 5 4 3 2 1 1 1 2 3 4 4 5 6 6 7 8 8 9 10 11 11 12 12 13 13 13 13 13 13 13 14 14 15 15 16 16 16 17
20 20 20 20 20 20 19 18 16 14 11 8 6 6 7 8 8 8 9 9 9 9 9 9 9 9 8 7 6 5 3 2 0 1 3 4 5 5 5 5 5 5 5 5 5 5 6 6 7 8 9 10 11 12 13 13 14 14 15 15 15 16 17 17 18 19 20 20 20
17 17 16 16 16 15 14 12 10 8 7 7 8 8 9 10 10 11 11 11 10 10 10 9 9 8 7 5 3 1 1 2 4 5 5 6 5 4 4 3 3 3 3 3 3 4 4 4 4 5 5 6 7 8 9 10 11 12 13 14 14 15 15 16 17 19 20 21 22
15 14 13 12 11 10 9 9 9 9 10 11 12 12 13 13 13 13 12 11 11 10 9 8 6 5 3 2 2 3 4 4 4 4 4 3 3 2 2 3 3 3 4 4 5 5 5 5 5 6 6 6 6 6 7 8 8 9 10 10 10 10 11 11 12 13 15 16 18
13 12 10 9 9 9 10 12 13 14 15 15 16 16 15 14 13 12 11 10 9 8 6 5 4 3 3 3 3 3 2 2 1 1 2 2 3 3 4 4 5 5 6 6 7 7 8 8 8 8 9 9 9 8 8 8 8 8 9 9 9 9 9 9 9 9 10 10 12
12 11 12 13 14 15 16 17 18 18 18 18 18 17 15 13 12 10 9 8 6 5 5 4 4 3 3 2 2 1 1 0 0 1 2 3 4 5 5 6 6 7 7 7 8 8 9 9 9 9 10 10 10 10 10 10 9 9 10 10 10 10 10 10 10 10 10 10 10
17 18 19 20 20 20 20 20 20 19 18 17 16 14 13 11 10 9 7 7 6 5 5 4 3 2 2 1 1 0 1 1 2 3 3 4 4 5 6 6 7 7 7 8 8 9 9 9 9 10 10 10 10 10 10 10 10 11 11 11 11 11 12 12 12 12 12 12 12
24 24 23 23 22 22 21 20 19 18 16 15 13 12 11 10 9 8 8 7 6 5 4 3 2 1 0 1 1 2 2 3 3 4 5 5 6 6 6 7 7 8 8 9 9 9 10 10 10 10 10 10 10 11 11 11 11 11 12 12 12 12 12 13 13 13 14 14 14
26 25 23 22 21 21 20 19 18 16 15 14 13 12 11 10 9 8 7 6 5 4 4 3 2 1 1 2 2 3 4 4 4 5 5 6 7 7 7 8 8 9 9 9 10 10 10 11 11 11 11 11 11 12 12 12 12 13 13 13 13 13 13 14 14 14 14 15 15
25 24 23 21 20 20 19 18 17 16 15 14 13 12 11 10 9 8 6 6 5 4 3 2 1 1 1 2 3 3 4 5 5 6 6 7 7 8 8 8 9 9 10 10 10 11 11 12 12 12 12 12 13 13 13 14 14 14 14 15 15 15 15 15 15 15 16 16 16
24 23 22 21 20 19 18 17 15 14 14 13 12 11 9 8 7 6 5 4 3 2 2 1 0 1 2 2 3 4 4 5 6 6 7 7 8 8 9 9 9 10 10 11 11 11 12 12 12 13 13 13 14 14 15 15 16 16 16 17 17 17 17 17 17 18 18 18 18
23 22 21 20 18 17 16 15 14 13 12 11 9 8 7 6 5 4 3 3 2 1 0 1 1 2 2 3 4 4 5 6 6 7 7 8 8 9 9 9 10 10 11 11 12 12 13 13 13 13 14 14 15 15 16 16 17 17 18 18 19 19 19 20 20 20 20 20 21
21 20 19 17 16 15 14 12 11 11 10 8 7 6 5 4 4 3 2 2 1 1 2 2 2 3 3 4 5 5 6 7 7 8 8 9 9 10 10 10 11 11 12 12 13 14 14 15 15 15 15 16 16 16 17 17 18 18 19 19 20 20 21 21 21 21 22 22 22
19 18 17 15 14 13 12 11 9 9 8 7 6 5 4 3 3 2 2 2 2 2 3 3 3 4 4 5 6 6 7 7 8 9 9 10 11 11 12 12 12 12 13 14 14 15 16 16 17 17 18 18 18 18 18 18 19 19 20 20 21 21 21 22 23 23 23 23 23
17 16 15 13 12 11 10 9 8 7 6 5 5 4 3 3 3 3 3 3 3 3 4 4 4 5 6 6 7 7 8 8 9 10 11 11 12 13 13 14 14 14 15 15 16 16 17 18 19 19 20 20 20 20 20 20 20 20 21 21 21 22 22 23 23 23 23 23 23
15 14 13 12 11 10 9 8 7 6 5 5 4 4 4 4 4 4 4 4 4 4 5 5 6 6 7 8 8 9 9 10 11 11 12 13 13 14 15 15 16 16 17 17 17 18 18 19 19 20 21 21 22 22 22 22 22 22 22 22 22 22 23 23 23 23 24 24 24
13 13 12 11 10 9 8 7 7 6 5 5 5 5 5 5 5 4 4 5 5 5 6 7 8 8 9 9 10 11 11 12 12 13 13 14 14 15 16 16 17 18 18 18 19 19 19 20 20 21 22 22 23 23 23 23 23 23 23 23 23 23 23 23 24 24 24 24 24
11 11 11 10 9 9 8 7 7 6 6 6 6 6 5 5 5 5 6 6 7 7 8 9 9 10 10 11 11 12 13 13 14 14 15 15 16 16 17 17 18 19 19 20 20 20 21 21 21 22 22 23 23 24 24 24 24 24 24 24 24 24 24 24 24 24 24 24 24
10 10 9 9 9 9 8 8 7 7 7 7 6 6 6 6 6 6 7 8 9 9 10 10 11 11 12 12 13 13 14 14 15 16 16 16 17 17 18 18 19 20 20 21 21 22 22 22 23 23 23 24 24 24 24 24 25 25 25 24 24 24 24 24 24 24 24 24 23
9 9 8 8 8 8 8 8 8 8 7 7 7 7 7 7 8 8 9 9 10 10 11 11 12 12 13 13 14 14 15 16 16 17 17 18 18 19 19 19 20 20 21 21 22 22 23 23 24 24 24 25 25 25 25 25 25 25 25 25 24 24 24 24 24 24 23 22 22
9 8 8 8 8 8 8 8 8 8 8 8 8 8 8 8 9 9 10 10 11 11 12 13 13 14 14 15 16 16 17 17 18 18 19 19 20 20 20 20 21 21 21 22 22 23 23 24 24 24 25 25 25 25 25 25 25 25 25 24 24 24 24 23 23 22 21 20 20
9 8 8 8 8 8 7 7 7 8 8 8 8 9 9 10 10 10 11 11 12 13 14 14 15 15 16 17 17 18 18 18 19 19 20 20 21 21 21 21 21 21 21 22 22 23 23 24 24 24 25 25 25 25 25 25 25 25 25 24 24 24 23 22 21 20 19 18 17
9 9 9 8 8 8 8 8 8 8 8 9 9 10 10 11 12 12 13 13 14 14 15 15 16 17 17 18 18 19 19 20 20 20 21 21 21 21 21 21 21 21 22 22 22 23 23 23 24 24 25 25 25 25 25 25 25 25 24 24 23 23 21 20 19 17 16 16 15
10 9 9 9 8 8 8 8 8 9 9 10 11 11 12 13 13 14 15 15 15 16 16 17 17 18 18 19 19 20 20 21 21 21 22 22 22 22 22 22 22 22 22 22 22 23 23 24 24 24 25 25 26 25 25 25 25 24 24 23 22 21 20 18 17 16 15 15 15
10 10 9 9 9 9 9 9 10 10 11 12 13 13 14 15 15 16 17 17 17 18 18 19 19 19 20 20 20 21 21 22 22 22 22 23 23 23 23 23 23 23 23 23 23 23 23 23 24 24 25 25 26 25 25 25 24 24 23 22 21 20 19 18 16 15 15 15 15
10 10 10 10 10 10 11 11 12 13 14 14 15 16 16 17 17 18 19 19 19 20 20 20 20 21 21 21 21 22 22 22 23 23 23 24 24 24 24 24 24 24 24 23 23 23 23 23 23 23 24 25 25 25 25 24 24 23 22 21 20 19 18 16 15 14 14 14 15
11 11 12 12 12 13 13 14 15 15 16 17 17 18 18 19 19 20 20 21 21 21 21 22 22 22 22 22 23 23 23 23 23 23 23 24 24 24 24 24 24 24 24 23 23 23 22 22 22 22 22 23 23 24 24 23 23 22 21 20 19 18 16 14 13 13 13 14 14
13 13 14 14 15 16 16 17 17 18 18 19 19 20 20 20 20 21 21 21 21 22 22 22 22 23 23 23 23 23 23 23 23 23 23 24 24 24 24 24 24 24 23 23 22 22 21 21 20 20 20 21 21 22 22 22 22 21 20 18 17 16 15 14 13 13 13 14 14
15 15 16 17 17 18 18 19 19 19 20 20 20 21 21 21 21 21 21 21 22 22 22 23 23 23 23 23 24 24 24 24 24 24 24 23 23 23 23 23 22 22 22 21 20 20 19 18 18 18 17 18 19 20 21 21 21 20 19 18 17 16 16 16 15 14 14 15 15
Wind_Direction
198 196 194 194 193 191 190 189 188 189 189 189 189 191 194 199 205 212 218 223 227 231 234 238 241 244 246 250 253 257 261 264 266 268 269 271 272 272 270 268 264 261 259 259 260 260 260 260 260 261 264 266 267 267 265 263 259 256 253 250 249 249 249 249 249 247 243 239 236
198 194 192 190 191 195 196 191 188 188 189 190 192 196 201 205 210 217 223 228 232 234 235 235 236 238 241 245 249 253 257 260 263 266 269 272 274 275 274 272 268 265 263 261 261 261 261 261 261 262 262 263 265 266 266 264 260 256 252 249 248 247 246 245 242 238 233 230 228
199 199 198 195 199 202 199 190 187 188 190 194 198 202 208 213 217 221 225 229 232 234 235 235 236 239 241 245 249 253 257 259 263 266 269 272 273 274 275 274 273 272 270 269 269 268 268 267 267 266 264 263 262 262 261 260 257 253 249 246 244 242 240 236 232 227 223 220 217
201 202 203 202 202 201 196 189 186 188 193 198 203 208 214 219 223 226 228 230 232 233 235 237 240 244 247 250 254 257 261 264 267 269 272 273 274 276 277 279 280 281 280 280 279 278 276 272 268 265 261 258 256 255 254 252 249 247 244 242 239 235 230 224 218 213 209 208 204
201 201 201 201 200 197 194 190 188 190 196 202 208 213 218 223 226 229 231 232 233 236 239 244 247 251 254 256 260 264 268 271 273 275 277 279 280 282 284 286 286 286 286 284 283 281 277 270 263 257 253 250 248 246 244 240 237 235 234 233 230 226 221 215 209 203 199 195 194
199 198 198 199 198 196 193 191 192 196 202 208 214 218 222 226 228 230 232 234 238 242 246 251 254 257 260 264 268 273 276 279 282 284 285 287 287 288 288 286 283 281 278 273 270 267 262 255 247 240 236 233 232 232 230 226 221 218 218 218 217 215 214 213 208 202 197 195 194
197 196 196 198 198 196 194 193 197 202 208 213 218 222 225 227 229 232 235 239 243 248 254 259 264 269 274 279 283 286 288 290 291 291 290 288 285 281 277 272 266 259 251 243 238 231 224 217 212 209 207 208 210 214 216 212 207 205 204 203 202 200 198 198 198 199 199 201 201
198 197 197 197 197 196 196 197 200 204 209 215 219 224 227 229 232 234 238 243 250 258 266 273 278 282 286 289 292 293 294 294 293 290 285 277 269 261 253 246 236 224 214 207 200 193 187 184 181 179 179 181 186 191 194 195 194 195 195 194 193 192 192 193 194 196 199 204 211
200 200 199 199 199 198 198 199 201 205 210 215 221 226 230 233 236 241 246 255 266 275 280 283 285 286 288 290 292 292 290 287 281 272 263 252 240 228 218 212 201 192 187 182 176 173 172 171 170 168 166 163 164 169 176 183 187 190 191 190 189 190 193 196 196 198 204 212 233
202 202 201 201 201 201 201 202 205 209 213 218 225 231 236 241 245 252 262 273 279 282 282 281 281 282 283 284 283 278 268 253 235 220 211 203 197 190 184 179 175 173 171 170 170 173 181 204 241 270 284 294 308 317 321 318 308 295 284 279 279 279 282 284 280 283 290 300 312
200 202 202 203 204 206 207 209 212 215 220 225 232 238 245 250 259 268 274 275 277 277 275 272 271 270 269 264 251 229 205 188 179 174 171 170 170 171 171 171 171 173 176 184 204 246 275 285 289 290 290 290 292 295 298 299 298 298 297 297 296 295 295 296 297 299 303 307 311
196 199 202 204 208 211 214 216 219 224 228 234 240 245 253 263 269 269 267 266 264 261 258 256 252 245 233 217 199 187 179 175 172 171 172 174 179 184 192 206 222 244 273 295 308 310 309 307 305 303 301 299 298 296 295 293 292 291 291 290 289 289 290 290 291 293 296 299 303
192 194 199 204 210 214 218 222 226 230 234 237 241 247 255 257 256 253 248 242 235 230 226 221 214 204 193 185 181 178 177 178 180 184 189 207 291 334 335 332 326 323 322 322 320 316 312 310 309 308 307 307 307 306 304 303 301 299 298 297 296 296 296 297 297 298 299 301 303
192 193 196 203 209 215 219 224 227 229 229 226 226 229 231 229 224 217 210 202 197 193 190 187 184 182 180 178 177 177 178 178 160 15 11 9 6 2 356 349 339 331 323 318 313 307 303 301 302 304 307 310 311 312 311 310 309 307 306 306 306 306 306 307 307 308 309 309 309
198 199 201 204 208 213 216 217 215 209 203 198 199 201 199 193 185 180 176 174 175 175 175 173 172 172 172 170 165 143 62 30 19 15 11 8 4 356 345 331 320 314 310 307 305 302 300 297 298 301 306 310 312 313 313 313 313 312 311 311 311 312 313 314 314 315 315 315 315
204 208 209 206 204 202 198 189 180 175 174 175 177 176 172 168 165 162 161 163 165 167 167 165 162 158 148 126 81 47 32 26 19 12 1 349 333 318 308 308 315 319 322 321 320 319 318 318 318 318 318 319 320 320 319 318 318 318 318 318 318 317 315 314 313 313 314 315 315
205 205 199 187 177 170 166 162 160 160 162 162 161 159 157 155 154 153 154 155 155 154 150 143 131 109 83 66 56 49 43 34 18 335 303 300 304 311 320 326 330 330 329 327 326 324 323 322 321 321 321 322 322 322 321 320 320 320 319 318 315 312 307 303 300 298 299 301 303
183 171 159 152 150 150 151 152 153 154 154 153 150 149 148 148 146 145 143 141 133 122 109 98 88 79 74 76 81 91 99 148 256 283 295 306 314 321 325 326 326 326 325 324 322 320 319 318 318 318 318 317 316 315 314 313 312 310 307 305 302 300 298 295 292 289 286 284 283
147 142 140 140 142 143 145 146 147 147 146 143 141 141 140 137 134 130 124 117 109 100 93 91 91 94 101 111 124 135 311 319 324 323 322 321 321 321 321 321 320 320 319 318 316 315 314 313 313 312 312 311 309 308 307 305 304 302 300 298 296 295 294 293 291 290 288 286 284
134 134 135 136 137 138 138 138 137 136 134 132 130 127 125 121 117 114 110 108 106 106 108 113 119 129 156 291 313 320 322 325 327 326 325 323 323 322 320 319 318 317 315 314 312 312 311 310 310 309 309 308 307 306 304 303 302 301 299 298 297 296 295 294 293 292 291 290 289
128 128 128 128 128 128 127 126 125 123 122 119 117 115 113 112 111 111 112 114 118 124 132 144 160 199 266 297 309 317 323 325 327 327 325 324 323 321 320 319 318 317 315 315 314 313 313 313 312 311 311 310 308 307 306 304 303 302 300 299 298 297 296 296 295 293 293 292 291
118 118 118 117 117 117 116 115 114 114 113 113 112 112 112 114 116 118 121 126 132 141 151 165 193 242 284 302 314 320 325 327 327 326 324 323 322 321 320 320 320 319 319 318 317 316 316 315 314 313 313 312 311 309 308 307 305 304 303 302 301 300 299 298 297 296 295 294 293
110 110 109 109 109 109 109 109 109 110 111 111 112 114 116 119 122 125 129 133 139 144 155 175 249 304 318 321 323 326 327 327 326 323 322 322 321 320 320 320 320 319 318 317 316 316 315 314 313 313 312 312 311 310 310 309 308 307 306 306 305 304 303 303 302 300 299 297 296
105 105 106 106 106 106 107 108 109 110 111 112 113 116 118 121 123 124 124 123 121 111 74 6 349 342 337 332 330 327 326 325 324 322 321 319 318 317 317 317 317 316 316 315 314 313 313 312 311 311 310 310 310 310 310 310 310 309 309 308 308 307 307 306 305 304 303 302 300
104 105 105 106 107 108 109 110 110 110 111 111 112 114 114 113 110 102 93 80 63 40 20 5 354 345 338 334 330 327 325 324 322 321 320 318 317 316 315 315 315 315 315 314 314 313 312 311 310 310 309 309 308 308 309 309 309 309 309 308 308 307 307 307 306 306 305 305 304
103 103 104 105 105 106 107 107 107 106 106 105 104 102 97 90 79 66 52 39 27 17 8 358 349 341 335 332 330 327 326 324 322 321 320 319 318 317 316 316 316 315 315 315 314 314 313 312 311 310 309 308 308 307 307 307 307 307 307 307 307 307 306 306 306 306 306 307 307
97 98 98 99 100 101 100 99 98 96 95 91 87 80 70 60 47 38 30 22 15 6 357 349 343 338 334 332 330 329 327 325 323 322 321 320 320 319 318 317 317 316 315 315 314 314 313 312 311 310 309 309 308 307 307 307 306 306 306 306 306 306 306 306 307 307 307 307 307
89 89 90 92 92 92 90 89 86 83 79 73 66 57 48 39 33 27 19 12 4 357 350 344 341 338 336 334 332 330 328 326 324 323 322 321 320 319 319 318 317 316 315 314 314 313 312 311 311 310 309 308 308 307 307 306 306 306 305 305 305 305 305 305 306 306 306 305 305
79 80 81 82 82 82 80 77 73 69 63 56 50 43 38 31 24 17 10 3 356 351 347 344 342 339 337 335 332 330 328 326 324 323 322 320 319 318 317 316 316 315 314 313 313 312 311 310 309 308 307 307 306 306 306 306 305 305 305 304 304 304 304 304 304 304 303 303 302
71 70 71 71 71 71 69 65 61 56 52 47 41 36 29 23 15 7 1 356 352 349 347 344 341 339 336 333 331 329 327 324 322 320 319 317 316 315 315 314 313 313 312 312 311 310 309 308 307 306 305 305 304 304 304 305 304 304 304 303 303 303 303 302 302 302 301 301 301
72 66 62 60 60 59 57 54 50 47 43 38 32 26 19 12 5 0 356 353 350 347 344 341 338 335 332 329 327 325 322 320 318 317 315 314 313 313 312 312 312 311 311 311 310 309 308 307 306 305 304 304 303 303 303 304 304 303 303 303 303 302 302 302 302 301 301 301 301
78 71 63 56 52 49 46 43 40 36 32 27 21 14 7 3 358 355 351 348 344 341 337 334 331 328 326 323 322 320 318 317 316 314 313 312 312 311 311 311 311 311 310 310 310 309 308 307 306 305 305 304 303 303 303 304 303 303 303 303 303 303 303 303 303 303 303 303 303
78 73 67 59 51 45 40 35 30 26 20 14 7 2 357 354 350 347 343 340 336 333 331 328 326 324 322 321 319 318 316 316 315 314 313 312 312 312 312 312 311 311 311 311 310 310 309 308 308 307 306 306 305 305 305 305 305 304 304 304 304 305 305 305 306 306 306 306 305
72 67 62 57 50 42 35 28 22 15 9 2 356 352 348 344 341 338 335 333 331 329 327 326 324 323 322 320 319 318 317 316 316 315 314 314 314 313 313 313 313 313 313 313 312 312 311 311 310 310 309 308 308 308 308 308 308 307 307 308 308 308 309 310 310 310 309 308 306
62 57 52 48 41 35 27 20 12 5 358 352 348 344 341 339 336 334 332 331 329 328 326 325 324 323 322 321 320 320 319 318 318 317 317 316 316 316 316 316 316 316 316 316 315 315 315 314 314 314 313 313 312 312 312 312 311 311 311 311 312 312 313 313 311 310 307 305 302
52 47 42 36 30 23 16 9 2 356 350 346 344 341 340 338 336 334 332 331 330 329 328 327 326 325 324 324 323 323 322 321 321 320 320 319 319 319 319 319 319 319 319 319 319 319 319 319 318 318 317 316 316 315 315 314 314 314 314 314 314 313 313 311 309 305 301 297 293
41 36 31 25 19 12 7 1 356 352 348 346 344 343 341 340 338 336 334 333 332 332 331 330 329 328 327 327 326 326 325 324 324 323 323 322 322 322 322 322 322 322 322 322 322 322 322 322 321 320 319 318 317 317 316 316 316 315 315 314 313 312 310 308 305 300 295 290 285
30 25 20 14 10 6 2 359 356 353 351 349 347 345 343 342 341 339 338 336 336 335 333 332 332 331 330 329 329 328 327 327 326 326 325 325 325 325 325 325 325 324 324 324 324 324 323 323 322 322 321 320 319 318 318 317 317 316 315 314 313 312 310 308 305 299 293 287 284
21 17 13 9 7 4 2 360 357 355 353 351 349 347 345 344 343 342 340 339 338 337 335 334 334 333 332 331 330 329 328 328 327 327 327 327 327 326 326 326 325 324 324 324 324 324 324 324 324 324 324 323 322 322 321 321 321 320 319 318 318 317 315 313 309 303 297 292 290
16 12 10 7 5 4 2 0 358 356 354 352 350 348 347 345 344 342 341 340 338 337 336 335 334 333 332 331 330 329 328 328 327 327 327 327 327 326 326 325 325 325 325 325 326 327 327 328 329 330 329 328 328 327 327 327 327 327 327 328 327 326 325 323 319 315 309 306 305
14 11 9 7 5 3 2 0 358 356 354 352 350 348 346 345 343 341 340 339 337 336 335 334 333 332 331 330 329 328 328 328 327 327 328 328 328 327 327 327 327 328 328 329 331 332 334 335 335 335 335 333 331 331 332 334 335 336 338 338 337 334 332 329 325 322 318 315 311
Height
1443 1444 1445 1446 1447 1448 1448 1449 1449 1450 1452 1454 1455 1456 1457 1458 1458 1459 1459 1460 1460 1461 1462 1463 1463 1464 1465 1465 1466 1466 1466 1466 1466 1466 1465 1465 1465 1465 1465 1465 1465 1464 1464 1464 1465 1465 1465 1465 1465 1465 1464 1464 1464 1463 1462 1461 1461 1461 1461 1461 1461 1461 1461 1462 1462 1461 1461 1461 1461
1442 1443 1444 1445 1446 1446 1447 1447 1448 1449 1451 1453 1454 1455 1456 1457 1458 1458 1458 1459 1459 1460 1461 1462 1463 1463 1464 1464 1464 1465 1465 1465 1464 1464 1464 1463 1463 1463 1463 1463 1463 1463 1462 1462 1463 1463 1462 1462 1463 1463 1462 1462 1461 1461 1460 1459 1459 1458 1458 1458 1458 1458 1458 1458 1458 1458 1458 1458 1458
1441 1442 1443 1443 1445 1445 1445 1446 1447 1449 1451 1452 1453 1454 1455 1456 1456 1457 1457 1458 1459 1459 1460 1461 1462 1462 1463 1463 1463 1463 1463 1463 1463 1463 1463 1462 1462 1462 1462 1461 1461 1460 1460 1460 1460 1460 1460 1460 1460 1460 1460 1459 1459 1459 1458 1457 1457 1456 1456 1456 1456 1456 1456 1456 1456 1456 1455 1455 1455
1440 1441 1442 1443 1443 1443 1444 1445 1447 1448 1450 1452 1453 1453 1454 1454 1455 1456 1456 1457 1458 1459 1460 1461 1461 1461 1462 1462 1462 1462 1462 1462 1462 1462 1461 1461 1461 1460 1460 1459 1458 1458 1458 1458 1458 1458 1458 1458 1458 1458 1457 1457 1457 1456 1456 1455 1454 1454 1454 1454 1454 1454 1454 1454 1454 1453 1453 1453 1453
1438 1439 1440 1442 1443 1443 1444 1444 1446 1448 1449 1451 1452 1452 1453 1453 1454 1455 1456 1457 1458 1459 1459 1460 1460 1460 1460 1461 1461 1461 1461 1461 1461 1460 1460 1459 1459 1458 1458 1458 1457 1457 1456 1457 1456 1456 1456 1456 1456 1456 1455 1455 1454 1454 1454 1453 1453 1452 1452 1452 1452 1452 1452 1452 1451 1451 1451 1451 1451
1437 1438 1439 1441 1442 1442 1443 1443 1445 1447 1448 1449 1450 1451 1452 1453 1453 1454 1455 1457 1457 1458 1458 1459 1459 1459 1459 1459 1459 1459 1459 1459 1459 1458 1458 1458 1457 1457 1457 1457 1457 1456 1456 1456 1456 1455 1455 1454 1454 1453 1453 1453 1453 1452 1452 1452 1451 1451 1450 1450 1450 1450 1450 1450 1450 1450 1450 1450 1449
1436 1437 1438 1439 1440 1441 1442 1443 1444 1446 1448 1449 1450 1451 1451 1452 1453 1454 1455 1456 1456 1457 1457 1457 1457 1457 1458 1458 1458 1458 1457 1457 1457 1457 1457 1456 1456 1456 1456 1455 1455 1455 1455 1454 1454 1454 1454 1453 1453 1452 1452 1451 1451 1450 1450 1450 1450 1449 1449 1449 1449 1449 1449 1449 1449 1449 1449 1449 1449
1435 1437 1438 1439 1440 1441 1442 1443 1444 1446 1447 1448 1449 1450 1451 1452 1453 1453 1454 1455 1455 1455 1455 1455 1456 1456 1456 1456 1456 1456 1456 1456 1456 1455 1455 1455 1455 1455 1455 1454 1454 1454 1453 1453 1453 1453 1453 1452 1452 1451 1451 1450 1450 1449 1449 1449 1449 1448 1448 1448 1448 1448 1448 1448 1448 1448 1448 1448 1449
1435 1437 1438 1439 1440 1441 1442 1443 1444 1446 1447 1448 1449 1450 1450 1451 1452 1452 1453 1453 1454 1454 1454 1454 1455 1455 1455 1455 1455 1455 1455 1455 1455 1455 1455 1455 1455 1454 1454 1454 1453 1453 1453 1453 1453 1453 1453 1452 1452 1452 1451 1451 1450 1450 1450 1449 1449 1449 1448 1448 1448 1448 1448 1447 1447 1447 1448 1448 1448
1435 1437 1438 1439 1440 1441 1442 1443 1444 1445 1446 1447 1448 1449 1450 1450 1451 1451 1452 1453 1453 1453 1454 1454 1454 1455 1455 1455 1455 1455 1455 1455 1455 1455 1455 1455 1455 1454 1454 1453 1453 1453 1453 1453 1453 1453 1453 1453 1452 1452 1452 1451 1451 1451 1450 1450 1450 1449 1449 1448 1448 1448 1448 1448 1447 1447 1448 1448 1448
1435 1437 1438 1439 1440 1441 1442 1443 1443 1444 1445 1447 1448 1448 1449 1450 1450 1451 1451 1452 1452 1453 1453 1454 1454 1454 1454 1454 1455 1455 1455 1455 1455 1455 1455 1455 1455 1455 1454 1454 1453 1453 1453 1453 1453 1453 1452 1452 1452 1452 1451 1451 1451 1450 1450 1450 1449 1449 1449 1449 1448 1448 1448 1448 1448 1447 1447 1447 1447
1435 1437 1438 1439 1440 1441 1441 1442 1443 1444 1445 1446 1447 1448 1449 1449 1450 1450 1451 1452 1452 1453 1453 1454 1454 1454 1454 1454 1455 1455 1455 1455 1455 1455 1455 1455 1455 1454 1454 1454 1453 1453 1453 1452 1452 1452 1452 1451 1451 1451 1451 1450 1450 1450 1449 1449 1449 1448 1448 1448 1448 1448 1448 1448 1447 1447 1447 1447 1446
1436 1437 1438 1439 1440 1440 1441 1442 1443 1444 1445 1446 1447 1448 1448 1449 1450 1450 1451 1452 1452 1453 1453 1454 1454 1454 1454 1455 1455 1455 1455 1455 1455 1455 1455 1454 1454 1454 1453 1453 1453 1453 1452 1452 1451 1451 1451 1451 1450 1450 1450 1449 1449 1449 1448 1448 1448 1448 1447 1447 1447 1447 1447 1446 1446 1446 1446 1445 1445
1436 1436 1437 1438 1439 1440 1441 1442 1443 1444 1445 1446 1447 1448 1448 1449 1450 1451 1451 1452 1452 1453 1453 1453 1454 1454 1454 1455 1455 1455 1455 1455 1455 1455 1454 1454 1454 1453 1453 1453 1453 1452 1452 1452 1451 1451 1451 1450 1450 1449 1449 1449 1448 1448 1448 1448 1447 1447 1446 1446 1445 1445 1445 1445 1444 1444 1444 1444 1443
1436 1437 1437 1438 1439 1440 1441 1442 1443 1444 1445 1446 1447 1448 1449 1450 1450 1451 1452 1452 1453 1453 1453 1453 1454 1454 1455 1455 1455 1455 1455 1455 1454 1454 1454 1454 1454 1453 1453 1453 1453 1452 1452 1451 1451 1450 1450 1450 1449 1449 1448 1448 1448 1448 1447 1447 1446 1446 1445 1445 1444 1444 1443 1443 1443 1443 1443 1442 1442
1436 1437 1437 1438 1439 1440 1441 1442 1443 1444 1445 1446 1448 1449 1450 1450 1451 1451 1452 1452 1453 1453 1453 1454 1454 1454 1454 1454 1455 1454 1454 1454 1454 1454 1454 1454 1454 1453 1453 1453 1452 1452 1451 1451 1450 1450 1450 1449 1449 1448 1448 1448 1447 1447 1446 1446 1446 1445 1445 1444 1444 1443 1443 1443 1443 1443 1442 1442 1441
1436 1437 1438 1438 1439 1440 1441 1443 1443 1445 1446 1447 1448 1449 1450 1451 1451 1452 1452 1452 1453 1453 1453 1454 1454 1454 1454 1454 1454 1454 1454 1454 1454 1454 1454 1454 1453 1453 1453 1452 1452 1451 1451 1450 1450 1450 1449 1449 1448 1448 1448 1447 1447 1446 1446 1445 1445 1445 1444 1444 1444 1443 1443 1443 1443 1442 1442 1441 1441
1437 1438 1438 1439 1440 1441 1442 1443 1444 1446 1447 1448 1449 1450 1451 1451 1452 1452 1452 1453 1453 1453 1453 1453 1453 1454 1454 1454 1454 1454 1454 1454 1454 1453 1453 1453 1453 1453 1452 1452 1451 1451 1450 1450 1449 1449 1449 1448 1448 1448 1447 1447 1446 1446 1446 1445 1445 1445 1445 1444 1444 1444 1443 1443 1443 1443 1442 1442 1441
1437 1438 1439 1440 1441 1442 1443 1444 1445 1447 1448 1449 1449 1450 1451 1451 1452 1452 1452 1453 1453 1453 1453 1453 1454 1454 1454 1454 1454 1454 1454 1453 1453 1453 1453 1453 1453 1452 1452 1451 1451 1450 1450 1449 1449 1449 1448 1448 1448 1447 1447 1446 1446 1446 1445 1445 1445 1445 1444 1444 1444 1443 1443 1443 1443 1442 1442 1441 1441
1438 1439 1440 1441 1442 1443 1444 1445 1446 1448 1449 1449 1450 1451 1451 1451 1452 1452 1453 1453 1453 1453 1454 1454 1454 1454 1454 1454 1454 1454 1453 1453 1453 1453 1453 1452 1452 1452 1451 1451 1450 1450 1449 1449 1448 1448 1448 1448 1447 1447 1446 1446 1445 1445 1445 1444 1444 1444 1443 1443 1443 1443 1442 1442 1441 1441 1441 1440 1440
1439 1440 1442 1443 1444 1445 1446 1447 1448 1449 1449 1450 1450 1451 1451 1452 1452 1453 1453 1453 1453 1454 1454 1454 1454 1454 1454 1454 1454 1454 1453 1453 1453 1453 1452 1452 1452 1451 1451 1450 1450 1449 1449 1448 1448 1448 1447 1447 1446 1446 1445 1445 1445 1444 1444 1443 1443 1443 1443 1442 1442 1442 1441 1441 1440 1440 1439 1439 1439
1441 1442 1443 1444 1445 1446 1447 1448 1449 1449 1450 1450 1451 1451 1452 1452 1453 1453 1453 1454 1454 1454 1454 1454 1454 1454 1454 1454 1454 1454 1453 1453 1452 1452 1452 1451 1451 1451 1450 1450 1449 1449 1448 1448 1447 1447 1446 1446 1445 1445 1444 1444 1443 1443 1443 1443 1442 1442 1441 1441 1441 1440 1440 1439 1439 1438 1438 1438 1438
1443 1444 1445 1446 1447 1448 1448 1449 1449 1450 1450 1451 1451 1452 1452 1453 1453 1453 1454 1454 1454 1454 1454 1454 1454 1454 1454 1454 1453 1453 1453 1453 1452 1452 1451 1451 1451 1450 1450 1449 1449 1448 1448 1447 1447 1446 1446 1445 1445 1444 1444 1443 1443 1442 1442 1441 1441 1440 1440 1440 1439 1439 1438 1438 1438 1437 1437 1436 1436
1445 1446 1446 1447 1448 1449 1449 1450 1450 1451 1451 1452 1452 1453 1453 1453 1454 1454 1454 1454 1454 1454 1454 1454 1454 1454 1454 1453 1453 1453 1453 1452 1452 1451 1451 1451 1450 1450 1449 1449 1448 1448 1447 1447 1446 1445 1445 1444 1444 1443 1443 1443 1442 1441 1441 1440 1440 1439 1438 1438 1438 1437 1437 1436 1436 1435 1435 1434 1434
1446 1447 1448 1448 1449 1450 1450 1451 1451 1452 1452 1453 1453 1453 1454 1454 1454 1454 1454 1454 1454 1454 1454 1454 1454 1454 1453 1453 1453 1453 1452 1452 1451 1451 1450 1450 1450 1449 1449 1448 1448 1447 1447 1446 1445 1445 1444 1443 1443 1442 1442 1441 1441 1440 1440 1439 1438 1438 1437 1437 1436 1436 1435 1435 1434 1433 1433 1432 1432
1448 1448 1449 1450 1450 1451 1451 1452 1452 1452 1453 1453 1453 1454 1454 1454 1454 1454 1454 1454 1455 1454 1454 1454 1454 1453 1453 1453 1452 1452 1451 1451 1451 1450 1450 1449 1449 1448 1448 1448 1447 1446 1446 1445 1444 1444 1443 1442 1442 1441 1440 1440 1439 1439 1438 1438 1437 1437 1436 1436 1435 1434 1433 1433 1432 1432 1431 1430 1430
1449 1449 1450 1451 1451 1452 1452 1452 1453 1453 1453 1454 1454 1454 1454 1454 1454 1455 1455 1455 1455 1454 1454 1454 1453 1453 1453 1452 1452 1451 1451 1451 1450 1450 1449 1449 1448 1448 1447 1447 1446 1445 1445 1444 1443 1443 1442 1441 1440 1439 1439 1438 1438 1437 1437 1436 1436 1435 1435 1434 1433 1433 1432 1431 1430 1430 1429 1428 1428
1450 1450 1451 1452 1452 1452 1453 1453 1453 1454 1454 1454 1454 1454 1455 1455 1455 1455 1455 1455 1454 1454 1454 1453 1453 1453 1452 1452 1451 1451 1450 1450 1450 1449 1448 1448 1448 1447 1446 1445 1445 1444 1443 1443 1442 1441 1441 1440 1439 1438 1437 1437 1436 1435 1435 1434 1434 1433 1433 1432 1432 1431 1430 1429 1429 1428 1428 1427 1426
1451 1452 1452 1453 1453 1453 1453 1454 1454 1454 1454 1455 1455 1455 1455 1455 1455 1455 1455 1455 1454 1454 1453 1453 1452 1452 1451 1451 1450 1450 1449 1449 1449 1448 1448 1447 1447 1446 1445 1444 1443 1443 1442 1441 1441 1440 1439 1438 1438 1437 1436 1435 1434 1433 1433 1433 1432 1431 1431 1430 1430 1429 1428 1428 1427 1427 1426 1425 1425
1452 1453 1453 1453 1453 1454 1454 1454 1455 1455 1455 1455 1455 1455 1455 1455 1455 1455 1455 1454 1454 1453 1453 1452 1451 1451 1450 1450 1449 1449 1449 1448 1448 1447 1447 1446 1446 1445 1444 1443 1443 1442 1441 1440 1439 1438 1438 1437 1436 1435 1434 1433 1432 1432 1431 1430 1430 1429 1429 1428 1428 1427 1427 1426 1425 1425 1424 1423 1423
1453 1453 1454 1454 1454 1454 1455 1455 1455 1455 1455 1455 1456 1456 1456 1455 1455 1455 1454 1453 1453 1452 1452 1451 1451 1450 1450 1449 1449 1448 1448 1447 1447 1446 1446 1445 1444 1444 1443 1442 1441 1440 1439 1438 1438 1437 1436 1435 1434 1433 1432 1431 1430 1430 1429 1428 1428 1427 1427 1426 1426 1425 1425 1424 1423 1423 1422 1422 1421
1455 1455 1455 1455 1455 1455 1455 1455 1456 1456 1456 1456 1456 1455 1455 1455 1454 1454 1453 1453 1452 1451 1451 1450 1450 1449 1449 1449 1448 1448 1447 1447 1446 1445 1444 1444 1443 1442 1442 1441 1440 1439 1438 1437 1436 1435 1434 1433 1432 1431 1430 1429 1428 1428 1427 1427 1426 1425 1425 1424 1424 1423 1423 1422 1421 1421 1420 1420 1419
1456 1456 1456 1456 1456 1456 1456 1456 1456 1456 1456 1456 1456 1455 1455 1454 1454 1453 1453 1452 1451 1451 1450 1450 1449 1449 1448 1448 1447 1447 1446 1445 1445 1444 1443 1442 1442 1441 1440 1439 1438 1437 1436 1435 1434 1433 1432 1431 1430 1429 1428 1427 1426 1426 1425 1424 1424 1423 1423 1422 1421 1421 1420 1420 1419 1418 1418 1418 1417
1457 1457 1457 1457 1457 1457 1457 1457 1456 1456 1456 1456 1455 1455 1454 1453 1453 1452 1452 1451 1451 1450 1449 1449 1448 1448 1447 1446 1446 1445 1444 1444 1443 1442 1441 1440 1439 1439 1438 1437 1436 1435 1434 1433 1432 1431 1430 1429 1428 1427 1426 1425 1424 1423 1423 1422 1421 1421 1420 1419 1419 1418 1418 1418 1417 1417 1416 1416 1415
1457 1457 1457 1457 1457 1457 1457 1456 1456 1456 1455 1455 1454 1454 1453 1453 1452 1451 1451 1450 1450 1449 1448 1448 1447 1447 1446 1445 1444 1443 1443 1442 1441 1440 1439 1438 1438 1437 1436 1435 1434 1433 1432 1431 1430 1429 1428 1427 1425 1424 1423 1422 1421 1421 1420 1419 1419 1418 1418 1417 1417 1416 1416 1415 1415 1415 1415 1414 1414
1457 1457 1457 1457 1457 1457 1456 1456 1456 1455 1455 1454 1454 1453 1453 1452 1451 1450 1450 1449 1448 1448 1447 1447 1446 1445 1444 1443 1443 1442 1441 1440 1439 1438 1437 1436 1435 1434 1433 1433 1432 1431 1430 1429 1428 1427 1426 1424 1423 1422 1421 1420 1419 1418 1418 1417 1417 1416 1416 1415 1415 1414 1414 1414 1414 1413 1413 1413 1413
1457 1457 1457 1457 1457 1456 1456 1456 1455 1455 1454 1453 1453 1452 1451 1450 1450 1449 1448 1448 1447 1446 1445 1445 1444 1443 1443 1442 1441 1440 1439 1438 1437 1436 1435 1434 1433 1432 1431 1430 1429 1428 1428 1427 1426 1425 1424 1423 1422 1421 1419 1418 1417 1417 1416 1415 1415 1414 1414 1413 1413 1413 1413 1413 1412 1412 1412 1412 1411
1457 1457 1457 1457 1456 1456 1455 1455 1454 1453 1453 1452 1451 1450 1450 1449 1448 1447 1447 1446 1445 1444 1443 1443 1442 1442 1441 1440 1439 1438 1437 1436 1435 1434 1433 1432 1431 1430 1429 1428 1427 1426 1426 1425 1424 1423 1422 1421 1420 1419 1418 1417 1416 1415 1414 1414 1413 1413 1412 1412 1412 1411 1411 1411 1410 1410 1410 1410 1410
1457 1457 1456 1456 1455 1455 1454 1453 1453 1452 1451 1450 1450 1449 1448 1448 1447 1446 1445 1444 1443 1443 1442 1441 1440 1440 1439 1438 1437 1436 1435 1434 1433 1433 1431 1430 1429 1428 1428 1427 1426 1425 1424 1423 1423 1422 1421 1420 1419 1418 1417 1416 1414 1413 1413 1412 1412 1411 1411 1410 1410 1409 1409 1409 1409 1408 1408 1408 1408
1456 1456 1455 1455 1454 1453 1453 1452 1451 1450 1450 1449 1448 1448 1447 1446 1445 1445 1444 1443 1442 1442 1441 1440 1439 1438 1437 1436 1435 1434 1434 1433 1432 1431 1430 1429 1428 1427 1426 1425 1424 1423 1423 1422 1421 1420 1420 1419 1418 1417 1416 1415 1413 1413 1412 1411 1410 1409 1409 1408 1408 1408 1408 1407 1407 1407 1407 1407 1407
1455 1455 1454 1453 1453 1452 1451 1451 1450 1449 1448 1448 1447 1446 1446 1445 1444 1443 1443 1442 1441 1440 1439 1438 1438 1437 1436 1435 1434 1433 1432 1431 1430 1429 1429 1428 1427 1426 1425 1424 1423 1422 1421 1421 1420 1419 1419 1418 1417 1417 1416 1414 1413 1412 1411 1410 1409 1408 1408 1408 1407 1407 1407 1406 1406 1406 1406 1406 1405